Flag Weather past 2 weeks in Stellenbosch, South Africa

Now
64 °F

Passing clouds.


Feels Like: 64 °F
Forecast: 59 / 84 °F
Wind: 9 mph from South

Location: Cape Town International Airport

Current Time: Nov 29, 2014 at 7:36:16 AM

Latest Report: Nov 29, 2014 at 7:00 AM


Visibility: N/A

Pressure: 30.01 "Hg

Humidity: 73%

Dew point: 55 °F

Location of StellenboschLocation

Historic Weather in Stellenbosch — Graph

°F

Stellenbosch temperature yesterday

Maximum temperature yesterday: 75 °F (at 2:00 PM)
Minimum temperature yesterday: 57 °F (at 5:00 AM)
Average temperature yesterday: 66 °F

Past Weeks' High & Low Weather Summary

 TemperatureHumidityPressure
High86 °F (Nov 25, 1:00 PM)94% (Nov 26, 11:00 PM)30.42 "Hg (Nov 26, 11:00 PM)
Low46 °F (Nov 15, 6:00 AM)36% (Nov 18, 12:00 PM)29.68 "Hg (Nov 26, 2:00 AM)
Average66 °F65%30.04 "Hg
* Reported Nov 14 6:00 AM — Nov 29 6:00 AM, Stellenbosch, Weather by CustomWeather, © 2014

Note: Actual official high and low records may vary slightly from our data, if they occured in-between our weather recording intervals... More about our weather records

Advertising

Stellenbosch weather history for previous 24 hours

 ConditionsComfort  
Time TempWeatherWind HumidityBarometerVisibility
6:00 AM
Nov 29
63 °FSunny.9 mph77%30.01 "Hg10 mi
5:00 AM63 °FSunny.10 mph77%30.01 "Hg10 mi
4:00 AM63 °FClear.13 mph77%30.01 "Hg10 mi
3:00 AM63 °FClear.13 mph77%30.01 "Hg10 mi
2:00 AM63 °FClear.12 mph83%30.01 "Hg10 mi
1:00 AM63 °FClear.12 mph77%30.04 "Hg10 mi
12:00 AM63 °FClear.13 mph77%30.07 "Hg10 mi
11:00 PM
Nov 28
64 °FClear.14 mph78%30.07 "Hg10 mi
10:00 PM64 °FClear.14 mph78%30.07 "Hg10 mi
9:00 PM64 °FClear.13 mph73%30.07 "Hg10 mi
8:00 PM64 °FClear.14 mph73%30.07 "Hg10 mi
7:00 PM66 °FClear.15 mph68%30.07 "Hg10 mi
6:00 PM68 °FPassing clouds.18 mph64%30.04 "HgN/A
5:00 PM72 °FPassing clouds.17 mph53%30.04 "HgN/A
4:00 PM73 °FPassing clouds.18 mph53%30.04 "HgN/A
3:00 PM73 °FPassing clouds.16 mph50%30.07 "HgN/A
2:00 PM75 °FPassing clouds.13 mph50%30.07 "HgN/A
1:00 PM72 °FScattered clouds.10 mph57%30.07 "HgN/A
12:00 PM72 °FPartly sunny.10 mph57%30.07 "HgN/A
11:00 AM70 °FPartly sunny.5 mph60%30.07 "HgN/A
10:00 AM72 °FPartly sunny.2 mph57%30.07 "HgN/A
9:00 AM66 °FScattered clouds.3 mph68%30.07 "HgN/A
8:00 AM64 °FPartly sunny.5 mph83%30.09 "HgN/A
7:00 AM61 °FPartly sunny.5 mph94%30.07 "Hg5 mi
Weather by CustomWeather, © 2014

See weather overviewHow to use our weather pages